FENGYUN 1C DEB, 38492

Orbit data source: Space-Track

FENGYUN 1C DEB, 38492 is space debris in SSO originally from a launch on Mon, 10 May 1999 UTC launched from the Taiyaun Space Center, China (TSC). Fengyun 1C debris stems from the Chinese weather satellite Fengyun-1C, which was intentionally destroyed by a Chinese anti-satellite missile in 2007. This event dramatically increased the amount of space debris, with thousands of trackable fragments posing hazards to satellites and human spaceflight. The Fengyun 1C debris cloud has become a focal point in discussions about space sustainability and the need for international regulations to prevent the creation of new debris.

Loading next visibility...
Identifier
38492, 1999-025ESB
Orbit
SSO
Country
Flag of CNCN / PRC
Related business
Manufacturer
Unknown
Mission
Spacecraft
Bus & Motor
Unknown
Mass
Unknown
Launch date (UTC)
1999-05-10 (27 years ago)
Launch vehicle
Unknown
Launch site
Taiyaun Space Center, China (TSC)
Object type
Payload
Rocket body
Debris
Shape & HBR
Unknown shape, 0.1 m
Radar Cross Section
Small (<0.1 m²)

Expand to show TLE details & history
Last TLE update: 1 month ago

TLE from 1 month ago
0 FENGYUN 1C DEB
1 38492U 99025ESB 26176.44538352  .00003495  00000-0  21168-2 0  9998
2 38492  98.6122 240.4019 0220819 330.1332  28.7378 13.95658308587185
Epoch: 2026-06-25T10:41Z
TLE epoch observation values (Epoch: 2026-06-25T10:41:21.136Z)
Latitude
-0.00005°
Longitude
166.4757°
Altitude
771.483 km
Speed
7.54 km/s
True Right ascension
16h 01m 36s
True Declination
0° 00' 00"
Sunlit
Object was in full shadow at epoch
Visualization orbit readout
Latitude
Unknown
Longitude
Unknown
Altitude
Unknown
Speed
Unknown
Apparent Right ascension
Unknown
Apparent Declination
Unknown
Sunlit
N/A
Visualization observer readout
Local Sidereal Time
19:12:15
Azimuth
Unknown
Elevation
Unknown
Doppler factor
Unknown
Orbital elements
Apogee altitude
1,066.902 km
Perigee altitude
745.204 km
Semi-major axis
7,284.19 km
Eccentricity
0.02208
Inclination
98.6122°
RAAN
240.4019°
Arg. of periapsis
330.1332°
True anomaly
29.98447°
Mean anomaly
28.7378°
Eccentric anomaly
29.35808°
Mean motion
3.49117 °/min
Orbital period
103.12 mins
BSTAR
0.0021168
Loading maneuver chart data...
Computing Atmospheric mass density...

Documentation

Showing up to 5 results
|